Weather History for KEMP - September, 2013

Change the Weather History Date:

Tuesday, September 3, 2013

  Actual Average Record
Temperature  
Mean Temperature 71 °F 74 °F  
Max Temperature 86 °F 86 °F 105 °F (2012)
Min Temperature 55 °F 61 °F 53 °F (2010)
Degree Days  
Heating Degree Days 0 0  
Month to date heating degree days 0 0  
Since 1 July heating degree days 2 1  
Cooling Degree Days 6 9  
Month to date cooling degree days 25 27  
Year to date cooling degree days 1154 1235  
Growing Degree Days 20 (Base 50)    
Moisture  
Dew Point 57 °F    
Average Humidity 66    
Maximum Humidity 100    
Minimum Humidity 32    
Precipitation  
Precipitation 0.00 in 0.16 in 0.15 in (2008)
Month to date precipitation T 0.49  
Year to date precipitation 24.09 27.10  
Sea Level Pressure  
Sea Level Pressure 30.06 in    
Wind  
Wind Speed 3 mph (SSE)    
Max Wind Speed 8 mph    
Max Gust Speed 16 mph    
Visibility 9 miles    
Events      
T = Trace of Precipitation, MM = Missing Value Source: NWS Daily Summary

Daily Weather History Graph

Daily Weather History Graph

Search for Another Location

Airport or City:

Trip Planner

Search our weather history database for the weather conditions in past years. The results will help you decide how hot, cold, wet, or windy it might be!

Date:

Astronomy

Sep. 03, 2013 Rise Set
Actual Time 6:56 AM CDT 7:51 PM CDT
Civil Twilight 6:29 AM CDT 8:18 PM CDT
Nautical Twilight 5:57 AM CDT 8:49 PM CDT
Astronomical Twilight 5:24 AM CDT 9:22 PM CDT
Moon 5:11 AM CDT 6:38 PM CDT
Length of Visible Light 13h 48m
Length of Day
12h 54m
Waning Crescent, 3% of the Moon is Illuminated
Sep 3
Waning Crescent
Sep 5
New
Sep 12
First Quarter
Sep 19
Full
Sep 26
Last Quarter

Hourly Weather History & Observations

Time (CDT) Temp. Heat Index Dew Point Humidity Pressure Visibility Wind Dir Wind Speed Gust Speed Precip Events Conditions
12:53 AM 63.0 °F - 59.0 °F 87% 30.04 in 10.0 mi Calm Calm - N/A   Clear
1:53 AM 62.1 °F - 60.1 °F 93% 30.04 in 10.0 mi Calm Calm - N/A   Clear
2:53 AM 60.1 °F - 57.9 °F 93% 30.04 in 10.0 mi Calm Calm - N/A   Clear
3:53 AM 55.0 °F - 55.0 °F 100% 30.05 in 10.0 mi Calm Calm - N/A   Clear
4:53 AM 57.9 °F - 57.0 °F 97% 30.05 in 10.0 mi Calm Calm - N/A   Clear
5:53 AM 57.0 °F - 57.0 °F 100% 30.06 in 9.0 mi WNW 3.5 mph - N/A   Clear
6:53 AM 57.0 °F - 57.0 °F 100% 30.07 in 2.0 mi WNW 3.5 mph - 0.01 in   Clear
7:17 AM 55.4 °F - 55.4 °F 100% 30.09 in 5.0 mi WNW 3.5 mph - N/A   Clear
7:53 AM 57.9 °F - 57.0 °F 97% 30.09 in 6.0 mi WNW 3.5 mph - N/A   Clear
8:53 AM 64.0 °F - 61.0 °F 90% 30.10 in 10.0 mi NW 3.5 mph - N/A   Clear
9:53 AM 70.0 °F - 59.0 °F 68% 30.10 in 10.0 mi Calm Calm - N/A   Clear
10:53 AM 75.9 °F - 59.0 °F 56% 30.11 in 10.0 mi Calm Calm - N/A   Clear
11:53 AM 79.0 °F - 59.0 °F 50% 30.10 in 10.0 mi Variable 3.5 mph - N/A   Clear
12:53 PM 81.0 °F 80.8 °F 55.9 °F 42% 30.08 in 10.0 mi Calm Calm - N/A   Clear
1:53 PM 82.0 °F 81.4 °F 55.0 °F 39% 30.06 in 10.0 mi SSE 3.5 mph - N/A   Clear
2:53 PM 84.9 °F 83.2 °F 53.1 °F 33% 30.04 in 10.0 mi Calm Calm - N/A   Clear
3:53 PM 84.9 °F - 52.0 °F 32% 30.03 in 10.0 mi Calm Calm - N/A   Clear
4:53 PM 84.9 °F 83.6 °F 55.0 °F 36% 30.01 in 10.0 mi South 5.8 mph - N/A   Clear
5:53 PM 84.0 °F 83.0 °F 55.9 °F 38% 30.01 in 10.0 mi SE 3.5 mph - N/A   Clear
6:53 PM 82.9 °F 82.8 °F 59.0 °F 44% 30.01 in 10.0 mi East 3.5 mph - N/A   Clear
7:53 PM 75.0 °F - 57.9 °F 55% 30.02 in 10.0 mi ESE 4.6 mph - N/A   Clear
8:53 PM 69.1 °F - 59.0 °F 70% 30.03 in 10.0 mi SE 3.5 mph - N/A   Clear
9:53 PM 68.0 °F - 60.1 °F 76% 30.05 in 10.0 mi SE 4.6 mph - N/A   Clear
10:53 PM 66.0 °F - 57.9 °F 75% 30.05 in 10.0 mi ESE 5.8 mph - N/A   Clear
11:53 PM 64.9 °F - 57.9 °F 78% 30.05 in 10.0 mi SE 5.8 mph - N/A   Clear